No particular awareness of the weather is required.    There are no Weather-warnings


Meteo18 Weather Cam more information Meteo18 Weather Cam


Thunder radar more information blitzortung!


Rain radar more information rain snow radar


Visit our other weather sites:

Template documentation
and downloads

And another site



Weather Underground History page Text

Daily Summary for January 17, 2017 Units:  English    Metric   Both
« Previous Day
Next Day »
Daily Weekly Monthly Yearly Custom
  High: Low: Average:
Temperature: TemperatureC °F -4.2 °F -2.9 °F
Dew Point: DewpointC °F -6.8 °F -5.2 °F
Humidity: Humidity % 75 % 84 %
Wind Speed: WindSpeedKMH mph 0.0 mph 11.6 mph
Wind Gust: WindSpeedGustKMH mph - -
Wind:- - ESE
Pressure: PressurehPa in 1028.7 in -
Precipitation: 0.0 in    
Historical Graphs
 
 
Tabular Data for January 17, 2017
Time Temperature Dew Point Pressure Wind Wind Speed Wind Gust Humidity Rainfall Rate (Hourly)
TemperatureC °F DewpointC °F PressurehPa in Calm     Humidity % HourlyPrecipMM in
00:02 -1.1 °F -2.5 °F 1028.7 in NE 6.4 mph 17.7 mph 90 % 0.0 in
00:07 -1.2 °F -2.6 °F 1028.7 in NNE 8.0 mph 14.5 mph 90 % 0.0 in
00:12 -1.2 °F -2.6 °F 1028.7 in NNE 12.9 mph 19.3 mph 90 % 0.0 in
00:17 -1.1 °F -2.7 °F 1028.7 in North 12.9 mph 19.3 mph 89 % 0.0 in
00:22 -1.0 °F -2.7 °F 1028.7 in NNE 19.3 mph 20.9 mph 88 % 0.0 in
00:27 -1.1 °F -2.7 °F 1028.7 in NE 20.9 mph 25.7 mph 89 % 0.0 in
00:32 -1.1 °F -2.7 °F 1028.7 in NE 12.9 mph 25.7 mph 89 % 0.0 in
00:37 -1.1 °F -2.8 °F 1028.7 in North 9.7 mph 24.1 mph 88 % 0.0 in
00:42 -1.1 °F -2.8 °F 1028.7 in NE 9.7 mph 24.1 mph 88 % 0.0 in
00:52 -1.2 °F -2.9 °F 1028.7 in NE 12.9 mph 24.1 mph 88 % 0.0 in
00:57 -1.2 °F -2.9 °F 1028.7 in NE 9.7 mph 20.9 mph 88 % 0.0 in
01:02 -1.2 °F -2.9 °F 1028.7 in ENE 14.5 mph 24.1 mph 88 % 0.0 in
01:07 -1.3 °F -3.2 °F 1028.7 in NE 16.1 mph 24.1 mph 87 % 0.0 in
01:12 -1.3 °F -3.2 °F 1028.7 in NNE 19.3 mph 24.1 mph 87 % 0.0 in
01:17 -1.3 °F -3.2 °F 1028.7 in NE 12.9 mph 20.9 mph 87 % 0.0 in
01:27 -1.5 °F -3.4 °F 1028.7 in NNW 4.8 mph 22.5 mph 87 % 0.0 in
01:32 -1.6 °F -3.5 °F 1028.7 in NNW 9.7 mph 19.3 mph 87 % 0.0 in
01:37 -1.6 °F -3.5 °F 1028.7 in NE 8.0 mph 19.3 mph 87 % 0.0 in
01:42 -1.7 °F -3.6 °F 1028.7 in NE 14.5 mph 19.3 mph 87 % 0.0 in
01:47 -1.7 °F -3.6 °F 1028.7 in NE 6.4 mph 19.3 mph 87 % 0.0 in
01:52 -1.8 °F -3.7 °F 1028.7 in North 8.0 mph 19.3 mph 87 % 0.0 in
01:57 -1.8 °F -3.7 °F 1028.7 in NE 4.8 mph 19.3 mph 87 % 0.0 in
02:02 -1.8 °F -3.7 °F 1028.7 in NNE 12.9 mph 17.7 mph 87 % 0.0 in
02:12 -1.9 °F -3.6 °F 1028.7 in NNW 3.2 mph 17.7 mph 88 % 0.0 in
02:17 -2.0 °F -3.7 °F 1028.7 in North 3.2 mph 17.7 mph 88 % 0.0 in
02:22 -2.1 °F -3.8 °F 1028.7 in NNW 4.8 mph 16.1 mph 88 % 0.0 in
02:27 -2.1 °F -3.7 °F 1028.7 in North 9.7 mph 16.1 mph 89 % 0.0 in
02:32 -2.1 °F -3.7 °F 1028.7 in NNW 14.5 mph 14.5 mph 89 % 0.0 in
02:37 -2.1 °F -3.7 °F 1028.7 in NNW 3.2 mph 14.5 mph 89 % 0.0 in
02:42 -2.1 °F -3.7 °F 1028.7 in North 6.4 mph 17.7 mph 89 % 0.0 in
02:47 -2.2 °F -3.6 °F 1028.7 in NNW 1.6 mph 17.7 mph 90 % 0.0 in
02:52 -2.2 °F -3.6 °F 1028.7 in NNW 3.2 mph 17.7 mph 90 % 0.0 in
02:57 -2.3 °F -3.7 °F 1028.7 in NNE 3.2 mph 16.1 mph 90 % 0.0 in
03:02 -2.3 °F -3.7 °F 1029.0 in NNE 6.4 mph 11.3 mph 90 % 0.0 in
03:07 -2.3 °F -3.7 °F 1029.0 in NNE 3.2 mph 14.5 mph 90 % 0.0 in
03:12 -2.3 °F -3.7 °F 1029.0 in NE 11.3 mph 17.7 mph 90 % 0.0 in
03:17 -2.2 °F -3.6 °F 1029.0 in WNW 1.6 mph 17.7 mph 90 % 0.0 in
03:22 -2.2 °F -3.6 °F 1029.0 in NNW 3.2 mph 17.7 mph 90 % 0.0 in
03:27 -2.2 °F -3.6 °F 1029.0 in ENE 4.8 mph 17.7 mph 90 % 0.0 in
03:32 -2.1 °F -3.5 °F 1029.0 in NE 6.4 mph 17.7 mph 90 % 0.0 in
03:42 -2.1 °F -3.7 °F 1029.0 in NE 16.1 mph 20.9 mph 89 % 0.0 in
03:52 -2.1 °F -3.8 °F 1029.0 in NNE 17.7 mph 29.0 mph 88 % 0.0 in
03:57 -2.2 °F -3.8 °F 1028.7 in NNE 8.0 mph 29.0 mph 89 % 0.0 in
04:02 -2.3 °F -3.9 °F 1029.0 in NNW 11.3 mph 29.0 mph 89 % 0.0 in
04:12 -2.4 °F -4.0 °F 1029.0 in NNE 14.5 mph 22.5 mph 89 % 0.0 in
04:22 -2.5 °F -4.2 °F 1029.0 in NNE 12.9 mph 22.5 mph 88 % 0.0 in
04:32 -2.6 °F -4.3 °F 1029.0 in NNE 12.9 mph 29.0 mph 88 % 0.0 in
04:37 -2.6 °F -4.5 °F 1029.0 in NNE 11.3 mph 24.1 mph 87 % 0.0 in
04:42 -2.7 °F -4.6 °F 1029.0 in NNE 9.7 mph 24.1 mph 87 % 0.0 in
04:47 -2.7 °F -4.6 °F 1029.0 in NNE 4.8 mph 22.5 mph 87 % 0.0 in
04:57 -2.9 °F -4.6 °F 1029.3 in NNE 14.5 mph 17.7 mph 88 % 0.0 in
05:02 -2.9 °F -4.6 °F 1029.3 in NE 12.9 mph 17.7 mph 88 % 0.0 in
05:12 -2.9 °F -4.8 °F 1029.3 in North 8.0 mph 22.5 mph 87 % 0.0 in
05:22 -2.9 °F -4.8 °F 1029.3 in North 8.0 mph 22.5 mph 87 % 0.0 in
05:27 -3.0 °F -5.0 °F 1029.3 in North 1.6 mph 20.9 mph 86 % 0.0 in
05:32 -3.1 °F -5.0 °F 1029.3 in NNE 3.2 mph 20.9 mph 87 % 0.0 in
05:42 -3.1 °F -5.1 °F 1029.3 in NE 4.8 mph 19.3 mph 86 % 0.0 in
05:47 -3.1 °F -5.1 °F 1029.7 in NE 6.4 mph 19.3 mph 86 % 0.0 in
05:52 -3.1 °F -5.1 °F 1029.3 in NE 9.7 mph 19.3 mph 86 % 0.0 in
05:57 -3.2 °F -5.2 °F 1029.3 in NNE 12.9 mph 27.4 mph 86 % 0.0 in
06:02 -3.2 °F -5.2 °F 1029.3 in NE 17.7 mph 27.4 mph 86 % 0.0 in
06:07 -3.2 °F -5.4 °F 1029.3 in NNE 3.2 mph 27.4 mph 85 % 0.0 in
06:12 -3.2 °F -5.4 °F 1029.3 in North 3.2 mph 27.4 mph 85 % 0.0 in
06:17 -3.3 °F -5.5 °F 1029.3 in NNE 6.4 mph 22.5 mph 85 % 0.0 in
06:22 -3.3 °F -5.5 °F 1029.7 in NNW 1.6 mph 22.5 mph 85 % 0.0 in
06:27 -3.4 °F -5.6 °F 1029.7 in NE 6.4 mph 22.5 mph 85 % 0.0 in
06:32 -3.4 °F -5.6 °F 1029.7 in NNE 17.7 mph 22.5 mph 85 % 0.0 in
06:37 -3.4 °F -5.6 °F 1029.7 in NE 8.0 mph 22.5 mph 85 % 0.0 in
06:47 -3.4 °F -5.6 °F 1029.7 in NE 4.8 mph 22.5 mph 85 % 0.0 in
06:52 -3.4 °F -5.6 °F 1029.7 in NE 14.5 mph 22.5 mph 85 % 0.0 in
06:57 -3.4 °F -5.6 °F 1029.7 in NNE 9.7 mph 24.1 mph 85 % 0.0 in
07:02 -3.5 °F -5.7 °F 1030.0 in NE 14.5 mph 24.1 mph 85 % 0.0 in
07:12 -3.6 °F -5.8 °F 1030.0 in NE 16.1 mph 24.1 mph 85 % 0.0 in
07:17 -3.6 °F -5.8 °F 1030.0 in NE 14.5 mph 17.7 mph 85 % 0.0 in
07:22 -3.6 °F -5.8 °F 1030.0 in ENE 6.4 mph 20.9 mph 85 % 0.0 in
07:27 -3.6 °F -5.8 °F 1030.0 in NNW 3.2 mph 20.9 mph 85 % 0.0 in
07:32 -3.7 °F -5.9 °F 1030.0 in NNE 11.3 mph 20.9 mph 85 % 0.0 in
07:42 -3.7 °F -5.9 °F 1030.4 in NE 3.2 mph 20.9 mph 85 % 0.0 in
07:47 -3.7 °F -5.9 °F 1030.4 in NNW 1.6 mph 20.9 mph 85 % 0.0 in
07:52 -3.7 °F -5.9 °F 1030.4 in NE 9.7 mph 20.9 mph 85 % 0.0 in
07:57 -3.8 °F -5.9 °F 1030.4 in North 12.9 mph 24.1 mph 85 % 0.0 in
08:02 -3.8 °F -5.9 °F 1030.4 in NNE 6.4 mph 24.1 mph 85 % 0.0 in
08:12 -3.8 °F -5.9 °F 1030.7 in NW 4.8 mph 24.1 mph 85 % 0.0 in
08:17 -3.9 °F -6.0 °F 1030.7 in NNW 6.4 mph 24.1 mph 85 % 0.0 in
08:22 -3.9 °F -5.9 °F 1030.7 in NE 11.3 mph 24.1 mph 86 % 0.0 in
08:32 -4.1 °F -6.1 °F 1030.7 in NE 8.0 mph 20.9 mph 86 % 0.0 in
08:37 -4.1 °F -6.1 °F 1030.7 in ENE 8.0 mph 19.3 mph 86 % 0.0 in
08:42 -4.1 °F -5.9 °F 1030.7 in NNE 12.9 mph 19.3 mph 87 % 0.0 in
08:47 -4.1 °F -6.1 °F 1030.7 in NE 12.9 mph 19.3 mph 86 % 0.0 in
08:52 -4.1 °F -6.1 °F 1030.7 in NE 9.7 mph 19.3 mph 86 % 0.0 in
08:57 -4.1 °F -6.1 °F 1030.7 in NNW 3.2 mph 20.9 mph 86 % 0.0 in
09:02 -4.1 °F -5.9 °F 1030.7 in NE 3.2 mph 20.9 mph 87 % 0.0 in
09:12 -4.0 °F -6.0 °F 1030.7 in NNE 8.0 mph 17.7 mph 86 % 0.0 in
09:17 -3.9 °F -5.7 °F 1030.7 in NW 4.8 mph 19.3 mph 87 % 0.0 in
09:22 -3.8 °F -5.8 °F 1031.0 in NNW 6.4 mph 19.3 mph 86 % 0.0 in
09:32 -3.7 °F -5.7 °F 1031.0 in North 4.8 mph 19.3 mph 86 % 0.0 in
09:37 -3.6 °F -5.6 °F 1031.0 in NNE 8.0 mph 22.5 mph 86 % 0.0 in
09:42 -3.5 °F -5.5 °F 1031.0 in North 4.8 mph 22.5 mph 86 % 0.0 in
09:52 -3.4 °F -5.4 °F 1031.0 in NNE 9.7 mph 22.5 mph 86 % 0.0 in
09:57 -3.4 °F -5.4 °F 1031.0 in NNW 6.4 mph 17.7 mph 86 % 0.0 in
10:02 -3.3 °F -5.3 °F 1031.0 in North 11.3 mph 17.7 mph 86 % 0.0 in
10:12 -3.2 °F -5.2 °F 1031.0 in North 3.2 mph 17.7 mph 86 % 0.0 in
10:17 -3.1 °F -5.1 °F 1031.0 in North 8.0 mph 19.3 mph 86 % 0.0 in
10:22 -3.0 °F -5.0 °F 1031.0 in NE 4.8 mph 19.3 mph 86 % 0.0 in
10:32 -2.9 °F -4.9 °F 1031.0 in NNW 4.8 mph 22.5 mph 86 % 0.0 in
10:37 -2.9 °F -5.1 °F 1031.0 in West 4.8 mph 22.5 mph 85 % 0.0 in
10:42 -2.8 °F -5.0 °F 1031.0 in NNE 17.7 mph 25.7 mph 85 % 0.0 in
10:47 -2.8 °F -5.0 °F 1031.0 in North 8.0 mph 25.7 mph 85 % 0.0 in
10:57 -2.7 °F -4.9 °F 1031.0 in NW 11.3 mph 25.7 mph 85 % 0.0 in
11:02 -2.6 °F -4.9 °F 1031.4 in NNW 20.9 mph 22.5 mph 84 % 0.0 in
11:07 -2.6 °F -4.8 °F 1031.4 in NNW 11.3 mph 25.7 mph 85 % 0.0 in
11:12 -2.5 °F -4.7 °F 1031.4 in NNW 9.7 mph 25.7 mph 85 % 0.0 in
11:22 -2.3 °F -4.6 °F 1031.0 in NW 6.4 mph 24.1 mph 84 % 0.0 in
11:27 -2.3 °F -4.8 °F 1031.0 in North 17.7 mph 24.1 mph 83 % 0.0 in
11:32 -2.2 °F -4.7 °F 1031.0 in North 9.7 mph 24.1 mph 83 % 0.0 in
11:37 -2.1 °F -4.6 °F 1031.0 in North 19.3 mph 25.7 mph 83 % 0.0 in
11:42 -2.1 °F -4.8 °F 1031.0 in NNE 17.7 mph 32.2 mph 82 % 0.0 in
11:47 -2.0 °F -4.8 °F 1031.0 in NNE 14.5 mph 32.2 mph 81 % 0.0 in
11:52 -1.9 °F -4.7 °F 1031.0 in NNE 16.1 mph 32.2 mph 81 % 0.0 in
11:57 -1.9 °F -4.7 °F 1031.0 in NNW 17.7 mph 29.0 mph 81 % 0.0 in
12:02 -1.8 °F -4.6 °F 1030.7 in NNW 4.8 mph 29.0 mph 81 % 0.0 in
12:12 -1.7 °F -4.5 °F 1030.7 in NNW 14.5 mph 30.6 mph 81 % 0.0 in
12:17 -1.6 °F -4.6 °F 1030.7 in NNE 9.7 mph 30.6 mph 80 % 0.0 in
12:22 -1.6 °F -4.6 °F 1030.7 in NNE 12.9 mph 30.6 mph 80 % 0.0 in
12:27 -1.4 °F -4.4 °F 1030.7 in North 17.7 mph 30.6 mph 80 % 0.0 in
12:32 -1.4 °F -4.4 °F 1030.7 in NNE 9.7 mph 25.7 mph 80 % 0.0 in
12:37 -1.3 °F -4.3 °F 1030.7 in NNE 9.7 mph 27.4 mph 80 % 0.0 in
12:42 -1.3 °F -4.6 °F 1030.7 in North 20.9 mph 32.2 mph 78 % 0.0 in
12:47 -1.2 °F -4.5 °F 1030.7 in NE 22.5 mph 32.2 mph 78 % 0.0 in
12:52 -1.1 °F -4.3 °F 1030.7 in NNE 14.5 mph 32.2 mph 79 % 0.0 in
12:57 -1.2 °F -5.1 °F 1030.7 in NE 17.7 mph 38.6 mph 75 % 0.0 in
13:02 -1.3 °F -5.0 °F 1030.7 in NNE 20.9 mph 38.6 mph 76 % 0.0 in
13:12 -1.6 °F -4.8 °F 1031.0 in North 14.5 mph 35.4 mph 79 % 0.0 in
13:17 -1.6 °F -4.6 °F 1031.0 in NNE 19.3 mph 35.4 mph 80 % 0.0 in
13:22 -1.6 °F -4.6 °F 1031.0 in East 19.3 mph 30.6 mph 80 % 0.0 in
13:27 -1.7 °F -4.9 °F 1031.0 in NE 11.3 mph 30.6 mph 79 % 0.0 in
13:32 -1.7 °F -4.5 °F 1031.0 in NE 14.5 mph 30.6 mph 81 % 0.0 in
13:37 -1.8 °F -5.0 °F 1031.0 in NNE 8.0 mph 29.0 mph 79 % 0.0 in
13:42 -1.9 °F -5.1 °F 1031.0 in NNE 19.3 mph 29.0 mph 79 % 0.0 in
13:52 -2.4 °F -5.4 °F 1031.0 in NNE 20.9 mph 35.4 mph 80 % 0.0 in
13:57 -2.4 °F -5.4 °F 1031.0 in NNE 22.5 mph 35.4 mph 80 % 0.0 in
14:02 -2.5 °F -5.3 °F 1031.0 in NNE 16.1 mph 33.8 mph 81 % 0.0 in
14:12 -2.5 °F -5.5 °F 1030.7 in NE 19.3 mph 33.8 mph 80 % 0.0 in
14:17 -2.3 °F -5.0 °F 1030.7 in NE 16.1 mph 29.0 mph 82 % 0.0 in
14:22 -2.3 °F -5.0 °F 1030.7 in North 16.1 mph 29.0 mph 82 % 0.0 in
14:32 -2.6 °F -5.4 °F 1030.7 in NNE 11.3 mph 30.6 mph 81 % 0.0 in
14:37 -2.6 °F -5.2 °F 1030.7 in North 12.9 mph 30.6 mph 82 % 0.0 in
14:42 -2.5 °F -5.3 °F 1030.7 in North 22.5 mph 35.4 mph 81 % 0.0 in
14:47 -2.5 °F -5.3 °F 1030.7 in NE 8.0 mph 35.4 mph 81 % 0.0 in
14:52 -2.7 °F -5.7 °F 1031.0 in North 12.9 mph 38.6 mph 80 % 0.0 in
14:57 -2.8 °F -5.8 °F 1031.0 in North 19.3 mph 38.6 mph 80 % 0.0 in
15:02 -2.7 °F -5.5 °F 1031.0 in NNW 17.7 mph 38.6 mph 81 % 0.0 in
15:12 -3.1 °F -6.1 °F 1031.0 in NNE 25.7 mph 41.8 mph 80 % 0.0 in
15:17 -3.1 °F -5.9 °F 1031.0 in NE 20.9 mph 41.8 mph 81 % 0.0 in
15:22 -3.1 °F -5.7 °F 1031.0 in NNE 19.3 mph 37.0 mph 82 % 0.0 in
15:27 -3.1 °F -5.7 °F 1031.0 in NNE 14.5 mph 33.8 mph 82 % 0.0 in
15:32 -3.1 °F -5.7 °F 1031.0 in NNW 12.9 mph 33.8 mph 82 % 0.0 in
15:37 -3.2 °F -6.2 °F 1031.0 in NE 11.3 mph 37.0 mph 80 % 0.0 in
15:42 -3.2 °F -6.0 °F 1031.0 in NNE 4.8 mph 37.0 mph 81 % 0.0 in
15:52 -3.2 °F -6.2 °F 1031.0 in NE 17.7 mph 32.2 mph 80 % 0.0 in
15:57 -3.2 °F -6.0 °F 1031.0 in North 20.9 mph 32.2 mph 81 % 0.0 in
16:02 -3.0 °F -5.6 °F 1031.0 in NNE 19.3 mph 32.2 mph 82 % 0.0 in
16:07 -2.9 °F -5.7 °F 1031.0 in NNE 14.5 mph 29.0 mph 81 % 0.0 in
16:12 -2.9 °F -5.7 °F 1031.0 in NNE 20.9 mph 29.0 mph 81 % 0.0 in
16:17 -2.9 °F -5.9 °F 1031.0 in NNE 4.8 mph 30.6 mph 80 % 0.0 in
16:22 -2.9 °F -5.9 °F 1031.0 in North 3.2 mph 30.6 mph 80 % 0.0 in
16:27 -2.9 °F -5.9 °F 1031.0 in ENE 17.7 mph 30.6 mph 80 % 0.0 in
16:32 -2.9 °F -5.9 °F 1031.0 in NNE 11.3 mph 30.6 mph 80 % 0.0 in
16:37 -2.9 °F -5.9 °F 1031.0 in North 3.2 mph 30.6 mph 80 % 0.0 in
16:42 -2.9 °F -6.0 °F 1031.0 in NNE 14.5 mph 33.8 mph 79 % 0.0 in
16:52 -2.9 °F -5.9 °F 1030.7 in NNW 8.0 mph 33.8 mph 80 % 0.0 in
16:57 -2.9 °F -5.9 °F 1030.7 in NNE 24.1 mph 32.2 mph 80 % 0.0 in
17:02 -2.9 °F -5.9 °F 1030.7 in NE 24.1 mph 32.2 mph 80 % 0.0 in
17:12 -3.0 °F -6.0 °F 1030.7 in East 12.9 mph 33.8 mph 80 % 0.0 in
17:17 -3.1 °F -6.1 °F 1030.7 in NNE 11.3 mph 33.8 mph 80 % 0.0 in
17:22 -3.2 °F -6.2 °F 1030.7 in NE 22.5 mph 30.6 mph 80 % 0.0 in
17:32 -3.2 °F -6.0 °F 1030.7 in North 12.9 mph 33.8 mph 81 % 0.0 in
17:37 -3.3 °F -6.1 °F 1030.7 in NNE 3.2 mph 37.0 mph 81 % 0.0 in
17:42 -3.4 °F -6.0 °F 1030.7 in NNW 8.0 mph 37.0 mph 82 % 0.0 in
17:52 -3.5 °F -6.0 °F 1030.7 in NNW 9.7 mph 24.1 mph 83 % 0.0 in
17:57 -3.5 °F -6.0 °F 1030.7 in North 17.7 mph 22.5 mph 83 % 0.0 in
18:07 -3.4 °F -5.9 °F 1030.7 in NE 8.0 mph 27.4 mph 83 % 0.0 in
18:12 -3.4 °F -5.9 °F 1030.7 in NE 6.4 mph 27.4 mph 83 % 0.0 in
18:17 -3.4 °F -5.9 °F 1030.7 in North 14.5 mph 27.4 mph 83 % 0.0 in
18:22 -3.4 °F -5.9 °F 1030.7 in NNE 8.0 mph 27.4 mph 83 % 0.0 in
18:27 -3.4 °F -5.9 °F 1030.7 in NNE 11.3 mph 27.4 mph 83 % 0.0 in
18:32 -3.4 °F -5.9 °F 1030.7 in Calm   27.4 mph 83 % 0.0 in
18:37 -3.4 °F -5.9 °F 1031.0 in ENE 11.3 mph 27.4 mph 83 % 0.0 in
18:42 -3.4 °F -5.9 °F 1031.0 in NNE 12.9 mph 25.7 mph 83 % 0.0 in
18:47 -3.3 °F -5.8 °F 1031.0 in North 11.3 mph 27.4 mph 83 % 0.0 in
18:52 -3.3 °F -5.8 °F 1031.0 in NNE 22.5 mph 27.4 mph 83 % 0.0 in
18:57 -3.3 °F -5.8 °F 1031.0 in NE 11.3 mph 27.4 mph 83 % 0.0 in
19:02 -3.3 °F -5.8 °F 1031.0 in NNE 6.4 mph 27.4 mph 83 % 0.0 in
19:12 -3.3 °F -5.8 °F 1031.0 in NE 6.4 mph 24.1 mph 83 % 0.0 in
19:17 -3.3 °F -5.8 °F 1031.4 in East 4.8 mph 27.4 mph 83 % 0.0 in
19:22 -3.2 °F -5.7 °F 1031.4 in NW 11.3 mph 32.2 mph 83 % 0.0 in
19:32 -3.2 °F -5.7 °F 1031.4 in NE 6.4 mph 27.4 mph 83 % 0.0 in
19:37 -3.2 °F -5.7 °F 1031.4 in North 12.9 mph 30.6 mph 83 % 0.0 in
19:42 -3.2 °F -5.7 °F 1031.4 in North 12.9 mph 37.0 mph 83 % 0.0 in
19:47 -3.2 °F -5.7 °F 1031.4 in NE 9.7 mph 37.0 mph 83 % 0.0 in
19:52 -3.2 °F -5.7 °F 1031.4 in WNW 9.7 mph 37.0 mph 83 % 0.0 in
19:57 -3.2 °F -5.7 °F 1031.4 in NE 3.2 mph 35.4 mph 83 % 0.0 in
20:02 -3.3 °F -5.8 °F 1031.4 in NE 12.9 mph 35.4 mph 83 % 0.0 in
20:07 -3.3 °F -5.8 °F 1031.0 in NNW 20.9 mph 35.4 mph 83 % 0.0 in
20:22 -3.4 °F -5.9 °F 1031.0 in NE 11.3 mph 32.2 mph 83 % 0.0 in
20:32 -3.5 °F -6.0 °F 1031.0 in NNW 17.7 mph 32.2 mph 83 % 0.0 in
20:37 -3.5 °F -6.0 °F 1031.0 in NE 20.9 mph 32.2 mph 83 % 0.0 in
20:42 -3.6 °F -6.1 °F 1031.0 in NNE 12.9 mph 29.0 mph 83 % 0.0 in
20:47 -3.7 °F -6.0 °F 1031.0 in NNE 11.3 mph 27.4 mph 84 % 0.0 in
20:52 -3.7 °F -6.2 °F 1031.0 in ESE 8.0 mph 25.7 mph 83 % 0.0 in
20:57 -3.7 °F -6.2 °F 1031.0 in ENE 9.7 mph 25.7 mph 83 % 0.0 in
21:02 -3.8 °F -6.1 °F 1031.0 in NNW 20.9 mph 25.7 mph 84 % 0.0 in
21:07 -3.9 °F -6.2 °F 1031.0 in NNW 12.9 mph 27.4 mph 84 % 0.0 in
21:12 -3.9 °F -6.2 °F 1031.0 in NE 20.9 mph 27.4 mph 84 % 0.0 in
21:17 -3.9 °F -6.2 °F 1031.0 in NNW 4.8 mph 27.4 mph 84 % 0.0 in
21:22 -4.0 °F -6.3 °F 1031.0 in North 14.5 mph 22.5 mph 84 % 0.0 in
21:32 -4.0 °F -6.3 °F 1031.0 in North 11.3 mph 25.7 mph 84 % 0.0 in
21:37 -4.1 °F -6.2 °F 1031.0 in NE 8.0 mph 25.7 mph 85 % 0.0 in
21:42 -4.1 °F -6.2 °F 1030.7 in NNW 24.1 mph 29.0 mph 85 % 0.0 in
21:47 -4.1 °F -6.4 °F 1031.0 in NE 19.3 mph 30.6 mph 84 % 0.0 in
21:52 -4.0 °F -6.3 °F 1031.0 in NNE 11.3 mph 30.6 mph 84 % 0.0 in
21:57 -4.1 °F -6.4 °F 1031.0 in NE 17.7 mph 30.6 mph 84 % 0.0 in
22:02 -4.1 °F -6.4 °F 1031.0 in NNE 11.3 mph 30.6 mph 84 % 0.0 in
22:12 -4.1 °F -6.4 °F 1031.0 in North 14.5 mph 29.0 mph 84 % 0.0 in
22:17 -4.2 °F -6.5 °F 1031.0 in NNE 17.7 mph 29.0 mph 84 % 0.0 in
22:22 -4.2 °F -6.5 °F 1030.7 in North 6.4 mph 27.4 mph 84 % 0.0 in
22:32 -4.1 °F -6.4 °F 1030.7 in NE 19.3 mph 32.2 mph 84 % 0.0 in
22:37 -4.1 °F -6.6 °F 1030.7 in North 24.1 mph 32.2 mph 83 % 0.0 in
22:42 -4.1 °F -6.6 °F 1030.7 in NE 8.0 mph 32.2 mph 83 % 0.0 in
22:47 -4.1 °F -6.6 °F 1030.7 in NE 3.2 mph 32.2 mph 83 % 0.0 in
22:52 -4.1 °F -6.6 °F 1030.4 in NNW 17.7 mph 30.6 mph 83 % 0.0 in
22:57 -4.1 °F -6.7 °F 1030.7 in NNE 17.7 mph 29.0 mph 82 % 0.0 in
23:02 -3.9 °F -6.7 °F 1030.7 in NNW 6.4 mph 29.0 mph 81 % 0.0 in
23:07 -3.8 °F -6.7 °F 1030.7 in NNE 17.7 mph 30.6 mph 80 % 0.0 in
23:12 -3.7 °F -6.6 °F 1030.7 in North 11.3 mph 35.4 mph 80 % 0.0 in
23:17 -3.7 °F -6.6 °F 1030.7 in NE 16.1 mph 35.4 mph 80 % 0.0 in
23:22 -3.7 °F -6.8 °F 1030.7 in NNE 12.9 mph 35.4 mph 79 % 0.0 in
23:27 -3.7 °F -6.8 °F 1030.7 in NE 9.7 mph 32.2 mph 79 % 0.0 in
23:32 -3.7 °F -6.8 °F 1030.7 in North 22.5 mph 32.2 mph 79 % 0.0 in
23:37 -3.7 °F -6.8 °F 1030.7 in NE 11.3 mph 32.2 mph 79 % 0.0 in
23:42 -3.7 °F -6.8 °F 1030.7 in NNE 17.7 mph 32.2 mph 79 % 0.0 in
23:47 -3.7 °F -6.8 °F 1030.7 in NE 17.7 mph 37.0 mph 79 % 0.0 in
23:52 -3.7 °F -6.8 °F 1030.7 in NNE 20.9 mph 37.0 mph 79 % 0.0 in
23:57 -3.7 °F -6.8 °F 1030.7 in NNE 24.1 mph 32.2 mph 79 % 0.0 in
Meteo18
Compliments of Weather Underground - 4 mb

Script developed by  Jim McMurry - jmcmurry@mwt.net Adapted for the template by  Wim van der Kuil - Leuven-Template.eu

You find our weather info also at:

European Weather Network

Weather Underground

Equipment we use:

Weather-station
Davis Vue

Weather-program
Meteobridge

Weather-server
Raspberry PI 2 B+

Provider
1 and 1

Davis Vue

Meteobridge

Raspberry PI 2 B+

1 and 1